|
NORAD ID: 14928 Int'l Code: 1983-075F
Perigee: 531.4 km
Apogee: 581.7 km
Inclination: 97.7 °
Period: 95.6 minutes
Semi major axis: 6927 km
Launch date: July 24, 1983
Source: Commonwealth of Independent States (former USSR) (CIS)
Note: This is SATELLITE DEBRIS
Two Line Element Set (TLE):
1 14928U 83075F 13143.19380167 .00002718 00000-0 18985-3 0 7219
2 14928 097.7458 245.9011 0036323 239.2715 182.5365 15.05694235596194
Source:
NASA's NSSDC Master Catalog entry for SL-3 DEB
|